Weather History for Baltimore, MD

Change the Weather History Date:

Tuesday, February 11, 2014

  Actual Average Record
Temperature  
Mean Temperature 22 °F 35 °F  
Max Temperature 30 °F 44 °F 72 °F (1887)
Min Temperature 14 °F 26 °F -6 °F (1899)
Degree Days  
Heating Degree Days 43 30  
Month to date heating degree days 367 338  
Since 1 July heating degree days 3232 3114  
Cooling Degree Days 0 0  
Month to date cooling degree days 0 0  
Year to date cooling degree days 0 0  
Moisture  
Dew Point 6 °F    
Average Humidity 49    
Maximum Humidity 67    
Minimum Humidity 31    
Precipitation  
Precipitation 0.00 in 0.10 in 3.26 in (1983)
Month to date precipitation 1.99 1.13  
Year to date precipitation 4.70 4.18  
Snow  
Snow 0.00 in 0.30 in 22.80 in (1983)
Month to date snowfall 0.6 3.5  
Since 1 July snowfall 13.3 13.7  
Snow Depth 0.00 in    
Sea Level Pressure  
Sea Level Pressure 30.41 in    
Wind  
Wind Speed 4 mph (NNW)    
Max Wind Speed 13 mph    
Max Gust Speed 20 mph    
Visibility 10 miles    
Events      
T = Trace of Precipitation, MM = Missing Value Source: NWS Daily Summary

Daily Weather History Graph

Daily Weather History Graph

Search for Another Location

Airport:

Trip Planner

Search our weather history database for the weather conditions in past years. The results will help you decide how hot, cold, wet, or windy it might be!

Date:

Astronomy

Feb. 11, 2014 Rise Set
Actual Time 7:03 AM EST 5:39 PM EST
Civil Twilight 6:35 AM EST 6:06 PM EST
Nautical Twilight 6:04 AM EST 6:38 PM EST
Astronomical Twilight 5:32 AM EST 7:09 PM EST
Moon 2:58 PM EST (2/11) 4:38 AM EST (2/11)
Length of Visible Light 11h 31m
Length of Day
10h 36m
Waxing Gibbous, 90% of the Moon is Illuminated
Feb 11
Waxing Gibbous
Feb 14
Full
Feb 22
Last Quarter
Mar 1
New
Mar 8
First Quarter

Hourly Weather History & Observations

Time (EST) Temp. Windchill Dew Point Humidity Pressure Visibility Wind Dir Wind Speed Gust Speed Precip Events Conditions
12:54 AM 21.0 °F 11.4 °F 8.1 °F 57% 30.33 in 10.0 mi NW 8.1 mph - N/A   Clear
1:54 AM 19.0 °F 12.3 °F 7.0 °F 59% 30.35 in 10.0 mi WNW 4.6 mph - N/A   Clear
2:54 AM 18.0 °F - 7.0 °F 62% 30.35 in 10.0 mi Calm Calm - N/A   Clear
3:54 AM 17.1 °F 8.7 °F 8.1 °F 68% 30.36 in 10.0 mi NW 5.8 mph - N/A   Scattered Clouds
4:54 AM 17.1 °F 10.0 °F 8.1 °F 68% 30.38 in 10.0 mi NW 4.6 mph - N/A   Scattered Clouds
5:54 AM 16.0 °F - 7.0 °F 68% 30.39 in 10.0 mi Calm Calm - N/A   Scattered Clouds
6:54 AM 15.1 °F - 7.0 °F 70% 30.41 in 10.0 mi Calm Calm - N/A   Partly Cloudy
7:54 AM 18.0 °F - 8.1 °F 65% 30.44 in 10.0 mi Calm Calm - N/A   Partly Cloudy
8:54 AM 23.0 °F 17.0 °F 8.1 °F 53% 30.45 in 10.0 mi Variable 4.6 mph - N/A   Partly Cloudy
9:54 AM 24.1 °F 13.1 °F 3.9 °F 42% 30.45 in 10.0 mi NNW 11.5 mph 16.1 mph N/A   Scattered Clouds
10:54 AM 25.0 °F 14.2 °F 5.0 °F 43% 30.44 in 10.0 mi NW 11.5 mph - N/A   Scattered Clouds
11:54 AM 27.0 °F 18.0 °F 6.1 °F 41% 30.42 in 10.0 mi North 9.2 mph - N/A   Scattered Clouds
12:54 PM 28.0 °F 21.7 °F 7.0 °F 41% 30.39 in 10.0 mi Variable 5.8 mph - N/A   Scattered Clouds
1:54 PM 30.0 °F 21.7 °F 5.0 °F 35% 30.38 in 10.0 mi NW 9.2 mph - N/A   Mostly Cloudy
2:54 PM 30.0 °F - 3.9 °F 33% 30.38 in 10.0 mi Calm Calm - N/A   Scattered Clouds
3:54 PM 30.0 °F 21.7 °F 3.9 °F 33% 30.38 in 10.0 mi NNW 9.2 mph - N/A   Partly Cloudy
4:54 PM 28.0 °F 22.8 °F 5.0 °F 38% 30.39 in 10.0 mi North 4.6 mph - N/A   Scattered Clouds
5:54 PM 26.1 °F 20.5 °F 5.0 °F 41% 30.42 in 10.0 mi NW 4.6 mph - N/A   Partly Cloudy
6:54 PM 25.0 °F - 5.0 °F 43% 30.44 in 10.0 mi Calm Calm - N/A   Partly Cloudy
7:54 PM 25.0 °F - 5.0 °F 43% 30.45 in 10.0 mi Calm Calm - N/A   Clear
8:54 PM 23.0 °F 18.4 °F 6.1 °F 48% 30.46 in 10.0 mi North 3.5 mph - N/A   Clear
9:54 PM 21.9 °F 15.7 °F 6.1 °F 51% 30.47 in 10.0 mi North 4.6 mph - N/A   Clear
10:54 PM 21.9 °F 17.2 °F 5.0 °F 48% 30.48 in 10.0 mi North 3.5 mph - N/A   Clear
11:54 PM 18.0 °F - 8.1 °F 65% 30.48 in 10.0 mi Calm Calm - N/A   Clear